Time,TemperatureF,DewpointF,PressureIn,WindDirection,WindDirectionDegrees,WindSpeedMPH,WindSpeedGustMPH,Humidity,HourlyPrecipIn,Conditions,Clouds,dailyrainin,SolarRadiationWatts/m^2,SoftwareType,DateUTC
2013-03-01 00:04:00,31.0,26.0,30.00,North,351,6.0,8.7,84,0.00,,,0.00,0,TxWx,2013-03-01 06:04:00,
2013-03-01 00:09:00,31.1,25.0,30.00,North,358,8.1,8.1,83,0.00,,,0.00,0,TxWx,2013-03-01 06:09:00,
2013-03-01 00:14:00,31.3,25.0,30.00,NNW,344,1.2,1.2,82,0.00,,,0.00,0,TxWx,2013-03-01 06:14:00,
2013-03-01 00:20:00,31.3,25.0,30.00,NNE,14,4.8,6.9,82,0.00,,,0.00,0,TxWx,2013-03-01 06:20:00,
2013-03-01 00:25:00,31.4,25.0,30.00,WNW,292,1.8,1.8,82,0.00,,,0.00,0,TxWx,2013-03-01 06:25:00,
2013-03-01 00:30:00,31.4,25.0,30.00,NNW,346,1.5,1.5,81,0.00,,,0.00,0,TxWx,2013-03-01 06:30:00,
2013-03-01 00:35:00,31.4,25.0,30.00,NNW,337,6.6,7.2,81,0.00,,,0.00,0,TxWx,2013-03-01 06:35:00,
2013-03-01 00:41:00,31.5,25.0,30.00,NNW,338,2.1,2.1,81,0.00,,,0.00,0,TxWx,2013-03-01 06:41:00,
2013-03-01 00:46:00,31.4,25.0,30.00,NW,324,3.9,4.5,81,0.00,,,0.00,0,TxWx,2013-03-01 06:46:00,
2013-03-01 00:51:00,31.5,25.0,30.00,ENE,57,2.4,2.4,81,0.00,,,0.00,0,TxWx,2013-03-01 06:51:00,
2013-03-01 00:56:00,31.5,26.0,30.00,West,281,2.4,2.7,81,0.00,,,0.00,0,TxWx,2013-03-01 06:56:00,
2013-03-01 01:02:00,31.5,25.0,30.00,North,3,3.0,4.5,81,0.00,,,0.00,0,TxWx,2013-03-01 07:02:00,
2013-03-01 01:07:00,31.5,25.0,30.00,NNW,347,2.7,3.0,81,0.00,,,0.00,0,TxWx,2013-03-01 07:07:00,
2013-03-01 01:12:00,31.5,25.0,30.00,NNW,332,3.6,4.2,81,0.00,,,0.00,0,TxWx,2013-03-01 07:12:00,
2013-03-01 01:17:00,31.5,25.0,30.00,NNE,20,9.6,9.6,82,0.00,,,0.00,0,TxWx,2013-03-01 07:17:00,
2013-03-01 01:23:00,31.4,25.0,30.00,NE,36,5.1,5.4,82,0.00,,,0.00,0,TxWx,2013-03-01 07:23:00,
2013-03-01 01:28:00,31.4,25.0,29.99,NNE,21,5.1,6.6,82,0.00,,,0.00,0,TxWx,2013-03-01 07:28:00,
2013-03-01 01:33:00,31.4,25.0,30.00,NW,321,4.5,4.5,82,0.00,,,0.00,0,TxWx,2013-03-01 07:33:00,
2013-03-01 01:38:00,31.4,25.0,30.00,NNE,23,5.1,5.4,82,0.00,,,0.00,0,TxWx,2013-03-01 07:38:00,
2013-03-01 01:43:00,31.4,25.0,30.00,NNW,344,4.5,5.4,83,0.00,,,0.00,0,TxWx,2013-03-01 07:43:00,
2013-03-01 01:48:00,31.4,25.0,30.00,WSW,246,2.4,2.4,83,0.00,,,0.00,0,TxWx,2013-03-01 07:48:00,
2013-03-01 01:53:00,31.3,26.0,29.99,NNE,16,3.0,3.3,84,0.00,,,0.00,0,TxWx,2013-03-01 07:53:00,
2013-03-01 01:59:00,31.2,26.0,29.99,North,6,6.0,6.6,84,0.00,,,0.00,0,TxWx,2013-03-01 07:59:00,
2013-03-01 02:04:00,31.1,26.0,29.99,North,10,8.4,8.4,86,0.00,,,0.00,0,TxWx,2013-03-01 08:04:00,
2013-03-01 02:09:00,31.0,26.0,29.99,NNE,14,5.7,5.7,87,0.00,,,0.00,0,TxWx,2013-03-01 08:09:00,
2013-03-01 02:14:00,30.9,27.0,29.99,North,9,6.9,8.1,87,0.00,,,0.00,0,TxWx,2013-03-01 08:14:00,
2013-03-01 02:19:00,30.7,27.0,29.99,NE,43,7.8,8.1,88,0.00,,,0.00,0,TxWx,2013-03-01 08:19:00,
2013-03-01 02:24:00,30.6,27.0,30.00,NNE,22,4.2,4.2,89,0.00,,,0.00,0,TxWx,2013-03-01 08:24:00,
2013-03-01 02:29:00,30.5,26.0,29.99,NNE,29,7.5,7.5,89,0.00,,,0.00,0,TxWx,2013-03-01 08:29:00,
2013-03-01 02:35:00,30.4,26.0,29.99,North,2,3.9,3.9,90,0.00,,,0.00,0,TxWx,2013-03-01 08:35:00,
2013-03-01 02:40:00,30.5,27.0,29.99,North,3,4.8,4.8,90,0.00,,,0.00,0,TxWx,2013-03-01 08:40:00,
2013-03-01 02:45:00,30.4,26.0,29.99,NNE,28,7.2,7.2,90,0.00,,,0.00,0,TxWx,2013-03-01 08:45:00,
2013-03-01 02:50:00,30.4,26.0,29.99,NNE,25,3.6,3.9,90,0.00,,,0.00,0,TxWx,2013-03-01 08:50:00,
2013-03-01 02:55:00,30.4,26.0,29.99,NW,325,2.4,2.7,90,0.00,,,0.00,0,TxWx,2013-03-01 08:55:00,
2013-03-01 03:01:00,30.4,26.0,29.99,NNE,28,5.1,5.7,90,0.00,,,0.00,0,TxWx,2013-03-01 09:01:00,
2013-03-01 03:06:00,30.4,26.0,29.99,NNE,25,3.9,4.2,90,0.00,,,0.00,0,TxWx,2013-03-01 09:06:00,
2013-03-01 03:11:00,30.4,26.0,29.99,North,8,5.1,5.1,90,0.00,,,0.00,0,TxWx,2013-03-01 09:11:00,
2013-03-01 03:16:00,30.5,27.0,29.99,North,355,1.2,1.5,90,0.00,,,0.00,0,TxWx,2013-03-01 09:16:00,
2013-03-01 03:21:00,30.5,27.0,29.99,West,272,0.9,0.9,90,0.00,,,0.00,0,TxWx,2013-03-01 09:21:00,
2013-03-01 03:26:00,30.4,26.0,29.99,NNE,14,6.6,6.9,89,0.00,,,0.00,0,TxWx,2013-03-01 09:26:00,
2013-03-01 03:31:00,30.4,26.0,29.99,North,4,5.7,6.6,89,0.00,,,0.00,0,TxWx,2013-03-01 09:31:00,
2013-03-01 03:36:00,30.4,26.0,29.99,NNE,22,4.8,4.8,89,0.00,,,0.00,0,TxWx,2013-03-01 09:36:00,
2013-03-01 03:41:00,30.3,26.0,29.99,NNE,15,9.9,9.9,89,0.00,,,0.00,0,TxWx,2013-03-01 09:41:00,
2013-03-01 03:46:00,30.3,26.0,30.00,NNE,16,5.1,5.1,89,0.00,,,0.00,0,TxWx,2013-03-01 09:46:00,
2013-03-01 03:52:00,30.1,26.0,30.00,NE,36,8.7,8.7,89,0.00,,,0.00,0,TxWx,2013-03-01 09:52:00,
2013-03-01 03:57:00,30.0,26.0,30.00,North,354,11.4,12.3,89,0.00,,,0.00,0,TxWx,2013-03-01 09:57:00,
2013-03-01 04:02:00,30.0,26.0,30.00,NNE,29,5.7,6.3,89,0.00,,,0.00,0,TxWx,2013-03-01 10:02:00,
2013-03-01 04:07:00,30.0,26.0,30.00,NNE,32,4.2,4.5,89,0.00,,,0.00,0,TxWx,2013-03-01 10:07:00,
2013-03-01 04:13:00,29.9,26.0,30.00,North,2,7.2,7.5,90,0.00,,,0.00,0,TxWx,2013-03-01 10:13:00,
2013-03-01 04:18:00,29.7,26.0,30.00,NE,43,8.1,8.7,90,0.00,,,0.00,0,TxWx,2013-03-01 10:18:00,
2013-03-01 04:23:00,29.7,27.0,30.00,NNE,25,3.6,3.9,91,0.00,,,0.00,0,TxWx,2013-03-01 10:23:00,
2013-03-01 04:28:00,29.6,27.0,30.00,NE,34,7.5,7.5,91,0.00,,,0.00,0,TxWx,2013-03-01 10:28:00,
2013-03-01 04:34:00,29.5,27.0,30.00,NNE,31,8.7,8.7,92,0.00,,,0.00,0,TxWx,2013-03-01 10:34:00,
2013-03-01 04:39:00,29.5,26.0,30.00,NNE,29,7.8,8.1,92,0.00,,,0.00,0,TxWx,2013-03-01 10:39:00,
2013-03-01 04:44:00,29.5,26.0,30.00,NE,36,5.4,5.7,93,0.00,,,0.00,0,TxWx,2013-03-01 10:44:00,
2013-03-01 04:49:00,29.5,26.0,30.00,NNE,30,4.8,4.8,93,0.00,,,0.00,0,TxWx,2013-03-01 10:49:00,
2013-03-01 04:54:00,29.5,26.0,30.00,NNE,31,5.1,5.1,93,0.00,,,0.00,0,TxWx,2013-03-01 10:54:00,
2013-03-01 04:59:00,29.4,26.0,30.00,NNE,20,5.7,5.7,93,0.00,,,0.00,0,TxWx,2013-03-01 10:59:00,
2013-03-01 05:04:00,29.4,26.0,30.01,NNE,20,8.4,8.4,94,0.00,,,0.00,0,TxWx,2013-03-01 11:04:00,
2013-03-01 05:09:00,29.5,26.0,30.01,NNE,16,5.4,5.4,94,0.00,,,0.00,0,TxWx,2013-03-01 11:09:00,
2013-03-01 05:14:00,29.4,26.0,30.01,North,359,4.5,4.8,94,0.00,,,0.00,0,TxWx,2013-03-01 11:14:00,
2013-03-01 05:19:00,29.4,26.0,30.01,NNE,30,9.3,9.3,94,0.00,,,0.00,0,TxWx,2013-03-01 11:19:00,
2013-03-01 05:25:00,29.4,26.0,30.01,NNE,19,5.4,6.0,94,0.00,,,0.00,0,TxWx,2013-03-01 11:25:00,
2013-03-01 05:30:00,29.4,26.0,30.01,NNE,18,6.9,7.8,94,0.00,,,0.00,0,TxWx,2013-03-01 11:30:00,
2013-03-01 05:35:00,29.4,26.0,30.02,NE,39,5.4,5.7,94,0.00,,,0.00,0,TxWx,2013-03-01 11:35:00,
2013-03-01 05:40:00,29.4,26.0,30.02,NNE,22,6.0,6.3,94,0.00,,,0.00,0,TxWx,2013-03-01 11:40:00,
2013-03-01 05:45:00,29.4,26.0,30.02,NE,46,6.3,6.9,94,0.00,,,0.00,0,TxWx,2013-03-01 11:45:00,
2013-03-01 05:51:00,29.4,26.0,30.02,NNE,25,7.2,7.2,94,0.00,,,0.00,0,TxWx,2013-03-01 11:51:00,
2013-03-01 05:56:00,29.4,26.0,30.02,North,7,5.4,6.6,94,0.00,,,0.00,0,TxWx,2013-03-01 11:56:00,
2013-03-01 06:01:00,29.4,27.0,30.03,NNE,30,5.4,5.4,95,0.00,,,0.00,0,TxWx,2013-03-01 12:01:00,
2013-03-01 06:06:00,29.4,26.0,30.03,NNE,22,7.2,7.2,94,0.00,,,0.00,0,TxWx,2013-03-01 12:06:00,
2013-03-01 06:11:00,29.3,26.0,30.03,NE,39,7.2,7.2,94,0.00,,,0.00,0,TxWx,2013-03-01 12:11:00,
2013-03-01 06:17:00,29.3,26.0,30.03,NNE,19,4.2,4.5,94,0.00,,,0.00,0,TxWx,2013-03-01 12:17:00,
2013-03-01 06:22:00,29.4,26.0,30.03,NNE,23,5.1,5.1,94,0.00,,,0.00,1,TxWx,2013-03-01 12:22:00,
2013-03-01 06:27:00,29.3,26.0,30.03,NE,40,8.7,9.0,94,0.00,,,0.00,3,TxWx,2013-03-01 12:27:00,
2013-03-01 06:32:00,29.3,26.0,30.03,NNE,13,4.8,4.8,94,0.00,,,0.00,5,TxWx,2013-03-01 12:32:00,
2013-03-01 06:37:00,29.4,26.0,30.03,North,11,10.5,10.5,94,0.00,,,0.00,7,TxWx,2013-03-01 12:37:00,
2013-03-01 06:43:00,29.5,26.0,30.04,North,359,5.4,5.4,94,0.00,,,0.00,10,TxWx,2013-03-01 12:43:00,
2013-03-01 06:48:00,29.4,26.0,30.03,North,10,3.9,4.2,94,0.00,,,0.00,14,TxWx,2013-03-01 12:48:00,
2013-03-01 06:53:00,29.4,26.0,30.03,North,5,6.9,7.2,93,0.00,,,0.00,17,TxWx,2013-03-01 12:53:00,
2013-03-01 06:58:00,29.5,26.0,30.04,North,9,4.2,5.1,93,0.00,,,0.00,12,TxWx,2013-03-01 12:58:00,
2013-03-01 07:03:00,29.5,26.0,30.04,North,7,5.4,5.4,93,0.00,,,0.00,12,TxWx,2013-03-01 13:03:00,
2013-03-01 07:08:00,29.4,26.0,30.04,NNE,22,7.5,7.8,93,0.00,,,0.00,18,TxWx,2013-03-01 13:08:00,
2013-03-01 07:14:00,29.5,26.0,30.04,NNE,27,9.6,9.6,93,0.00,,,0.00,22,TxWx,2013-03-01 13:14:00,
2013-03-01 07:19:00,29.5,27.0,30.04,NNE,17,6.3,6.3,92,0.00,,,0.00,25,TxWx,2013-03-01 13:19:00,
2013-03-01 07:24:00,29.6,27.0,30.05,NE,48,7.8,7.8,92,0.00,,,0.00,27,TxWx,2013-03-01 13:24:00,
2013-03-01 07:29:00,29.6,27.0,30.05,NE,39,7.2,7.2,92,0.00,,,0.00,29,TxWx,2013-03-01 13:29:00,
2013-03-01 07:35:00,29.7,27.0,30.05,NNE,26,4.5,4.5,92,0.00,,,0.00,32,TxWx,2013-03-01 13:35:00,
2013-03-01 07:40:00,29.7,27.0,30.05,NNE,15,5.1,5.7,91,0.00,,,0.00,35,TxWx,2013-03-01 13:40:00,
2013-03-01 07:45:00,29.8,27.0,30.05,NNE,24,4.2,4.2,92,0.00,,,0.00,38,TxWx,2013-03-01 13:45:00,
2013-03-01 07:50:00,29.8,27.0,30.05,NE,41,8.1,8.4,91,0.00,,,0.00,42,TxWx,2013-03-01 13:50:00,
2013-03-01 07:56:00,29.8,27.0,30.05,NNE,25,3.6,3.9,91,0.00,,,0.00,45,TxWx,2013-03-01 13:56:00,
2013-03-01 08:01:00,29.8,26.0,30.05,NNE,31,6.6,6.9,90,0.00,,,0.00,52,TxWx,2013-03-01 14:01:00,
2013-03-01 08:06:00,29.9,26.0,30.06,NNE,27,4.2,4.5,90,0.00,,,0.00,60,TxWx,2013-03-01 14:06:00,
2013-03-01 08:11:00,29.9,26.0,30.06,NE,51,10.5,10.5,90,0.00,,,0.00,72,TxWx,2013-03-01 14:11:00,
2013-03-01 08:17:00,29.9,26.0,30.05,ENE,77,4.8,5.7,90,0.00,,,0.00,86,TxWx,2013-03-01 14:17:00,
2013-03-01 08:22:00,30.0,26.0,30.05,NE,53,3.3,3.6,90,0.00,,,0.00,105,TxWx,2013-03-01 14:22:00,
2013-03-01 08:27:00,29.9,26.0,30.06,NNE,32,6.3,6.3,90,0.00,,,0.00,115,TxWx,2013-03-01 14:27:00,
2013-03-01 08:33:00,29.9,26.0,30.05,NE,41,7.5,8.4,90,0.00,,,0.00,126,TxWx,2013-03-01 14:33:00,
2013-03-01 08:38:00,29.9,26.0,30.05,NNE,27,7.8,7.8,90,0.00,,,0.00,130,TxWx,2013-03-01 14:38:00,
2013-03-01 08:43:00,30.0,26.0,30.06,NNE,22,10.8,10.8,90,0.00,,,0.00,141,TxWx,2013-03-01 14:43:00,
2013-03-01 08:48:00,30.2,26.0,30.06,NNE,15,6.0,6.0,90,0.00,,,0.00,154,TxWx,2013-03-01 14:48:00,
2013-03-01 08:53:00,30.2,26.0,30.06,North,358,9.3,9.6,89,0.00,,,0.00,163,TxWx,2013-03-01 14:53:00,
2013-03-01 08:59:00,30.4,26.0,30.06,NNE,13,4.5,4.5,89,0.00,,,0.00,166,TxWx,2013-03-01 14:59:00,
2013-03-01 09:04:00,30.3,26.0,30.06,North,5,7.2,7.5,88,0.00,,,0.00,173,TxWx,2013-03-01 15:04:00,
2013-03-01 09:09:00,30.4,26.0,30.06,NNE,31,8.7,8.7,88,0.00,,,0.00,176,TxWx,2013-03-01 15:09:00,
2013-03-01 09:15:00,30.5,26.0,30.07,NNE,18,8.4,9.0,87,0.00,,,0.00,177,TxWx,2013-03-01 15:15:00,
2013-03-01 09:20:00,30.6,26.0,30.07,NNE,16,6.3,6.6,86,0.00,,,0.00,184,TxWx,2013-03-01 15:20:00,
2013-03-01 09:25:00,30.7,26.0,30.07,NNW,337,7.5,11.1,85,0.00,,,0.00,194,TxWx,2013-03-01 15:25:00,
2013-03-01 09:30:00,30.6,26.0,30.07,North,4,13.8,14.4,84,0.00,,,0.00,209,TxWx,2013-03-01 15:30:00,
2013-03-01 09:36:00,30.7,26.0,30.07,North,354,7.2,7.2,84,0.00,,,0.00,218,TxWx,2013-03-01 15:36:00,
2013-03-01 09:41:00,30.9,26.0,30.07,North,0,8.4,8.4,84,0.00,,,0.00,226,TxWx,2013-03-01 15:41:00,
2013-03-01 09:46:00,30.8,25.0,30.07,North,2,9.0,9.9,83,0.00,,,0.00,238,TxWx,2013-03-01 15:46:00,
2013-03-01 09:52:00,30.9,25.0,30.07,NNE,15,6.0,6.0,83,0.00,,,0.00,250,TxWx,2013-03-01 15:52:00,
2013-03-01 09:57:00,31.2,25.0,30.07,NNW,348,4.5,4.5,82,0.00,,,0.00,258,TxWx,2013-03-01 15:57:00,
2013-03-01 10:02:00,31.0,25.0,30.08,NNE,17,7.2,7.8,82,0.00,,,0.00,265,TxWx,2013-03-01 16:02:00,
2013-03-01 10:07:00,30.9,25.0,30.07,NE,43,7.8,7.8,81,0.00,,,0.00,275,TxWx,2013-03-01 16:07:00,
2013-03-01 10:12:00,30.8,25.0,30.08,NE,35,7.5,8.7,81,0.06,,,0.01,275,TxWx,2013-03-01 16:12:00,
2013-03-01 10:17:00,31.1,25.0,30.08,NNE,31,9.6,9.6,81,0.06,,,0.01,294,TxWx,2013-03-01 16:17:00,
2013-03-01 10:22:00,31.1,25.0,30.08,NE,55,5.4,6.0,81,0.00,,,0.01,306,TxWx,2013-03-01 16:22:00,
2013-03-01 10:28:00,30.8,25.0,30.08,NE,34,8.1,8.4,80,0.00,,,0.01,302,TxWx,2013-03-01 16:28:00,
2013-03-01 10:33:00,31.1,25.0,30.08,NNE,30,9.9,9.9,81,0.00,,,0.01,313,TxWx,2013-03-01 16:33:00,
2013-03-01 10:38:00,31.3,24.0,30.08,NNW,340,6.3,6.3,80,0.00,,,0.01,305,TxWx,2013-03-01 16:38:00,
2013-03-01 10:43:00,31.3,24.0,30.08,NNE,22,9.3,9.6,79,0.00,,,0.01,302,TxWx,2013-03-01 16:43:00,
2013-03-01 10:48:00,31.2,24.0,30.08,NNE,12,8.1,8.1,79,0.00,,,0.01,337,TxWx,2013-03-01 16:48:00,
2013-03-01 10:53:00,31.3,24.0,30.08,ENE,59,6.0,6.3,79,0.00,,,0.01,353,TxWx,2013-03-01 16:53:00,
2013-03-01 10:58:00,31.4,24.0,30.08,NNE,26,14.1,14.1,78,0.00,,,0.01,353,TxWx,2013-03-01 16:58:00,
2013-03-01 11:04:00,31.8,25.0,30.08,NE,44,3.6,4.5,78,0.00,,,0.01,339,TxWx,2013-03-01 17:04:00,
2013-03-01 11:09:00,31.5,25.0,30.08,ENE,59,9.9,9.9,78,0.00,,,0.01,308,TxWx,2013-03-01 17:09:00,
2013-03-01 11:14:00,31.5,25.0,30.08,NNE,19,4.2,4.8,79,0.00,,,0.01,300,TxWx,2013-03-01 17:14:00,
2013-03-01 11:19:00,31.8,25.0,30.08,North,350,5.4,5.7,78,0.00,,,0.01,350,TxWx,2013-03-01 17:19:00,
2013-03-01 11:24:00,31.8,24.0,30.08,NNE,29,7.8,9.0,76,0.00,,,0.01,362,TxWx,2013-03-01 17:24:00,
2013-03-01 11:30:00,31.9,24.0,30.08,NE,44,8.1,8.1,75,0.00,,,0.01,350,TxWx,2013-03-01 17:30:00,
2013-03-01 11:35:00,31.8,24.0,30.08,NNE,12,7.8,11.1,75,0.00,,,0.01,349,TxWx,2013-03-01 17:35:00,
2013-03-01 11:40:00,31.8,24.0,30.08,NNE,30,9.3,9.6,75,0.00,,,0.01,363,TxWx,2013-03-01 17:40:00,
2013-03-01 11:45:00,32.1,24.0,30.08,NE,34,6.0,6.0,74,0.00,,,0.01,320,TxWx,2013-03-01 17:45:00,
2013-03-01 11:51:00,32.3,23.0,30.08,North,2,12.0,13.8,73,0.00,,,0.01,386,TxWx,2013-03-01 17:51:00,
2013-03-01 11:56:00,32.2,23.0,30.07,NNW,333,6.0,6.3,72,0.00,,,0.01,416,TxWx,2013-03-01 17:56:00,
2013-03-01 12:01:00,32.1,22.0,30.08,NNE,16,14.7,14.7,70,0.00,,,0.01,440,TxWx,2013-03-01 18:01:00,
2013-03-01 12:07:00,32.0,22.0,30.08,NNE,20,15.6,15.9,69,0.00,,,0.01,441,TxWx,2013-03-01 18:07:00,
2013-03-01 12:12:00,32.4,22.0,30.08,North,1,10.8,10.8,70,0.00,,,0.01,423,TxWx,2013-03-01 18:12:00,
2013-03-01 12:17:00,32.6,23.0,30.08,North,7,10.8,10.8,68,0.00,,,0.01,448,TxWx,2013-03-01 18:17:00,
2013-03-01 12:22:00,32.3,21.0,30.08,NE,34,6.9,7.8,68,0.00,,,0.01,434,TxWx,2013-03-01 18:22:00,
2013-03-01 12:28:00,32.6,22.0,30.08,NNE,12,11.4,12.0,68,0.00,,,0.01,444,TxWx,2013-03-01 18:28:00,
2013-03-01 12:33:00,32.3,21.0,30.08,NE,35,10.5,11.4,67,0.00,,,0.01,396,TxWx,2013-03-01 18:33:00,
2013-03-01 12:38:00,32.0,22.0,30.07,NE,39,11.4,11.4,68,0.00,,,0.01,369,TxWx,2013-03-01 18:38:00,
2013-03-01 12:43:00,32.4,22.0,30.07,NE,46,11.4,12.0,68,0.00,,,0.01,403,TxWx,2013-03-01 18:43:00,
2013-03-01 12:49:00,32.6,23.0,30.08,NNE,14,9.9,11.1,69,0.00,,,0.01,377,TxWx,2013-03-01 18:49:00,
2013-03-01 12:54:00,32.3,22.0,30.08,North,0,15.0,15.0,68,0.00,,,0.01,361,TxWx,2013-03-01 18:54:00,
2013-03-01 12:59:00,32.0,22.0,30.07,NNE,19,11.1,12.0,69,0.00,,,0.01,367,TxWx,2013-03-01 18:59:00,
2013-03-01 13:04:00,32.4,22.0,30.07,NNE,30,7.2,8.1,70,0.00,,,0.01,338,TxWx,2013-03-01 19:04:00,
2013-03-01 13:10:00,32.0,22.0,30.07,North,1,10.2,12.0,69,0.00,,,0.01,457,TxWx,2013-03-01 19:10:00,
2013-03-01 13:15:00,32.2,22.0,30.07,NNE,14,12.6,12.6,70,0.00,,,0.01,513,TxWx,2013-03-01 19:15:00,
2013-03-01 13:20:00,32.4,22.0,30.07,NE,35,8.7,9.3,70,0.00,,,0.01,460,TxWx,2013-03-01 19:20:00,
2013-03-01 13:25:00,32.3,22.0,30.07,North,5,8.4,10.2,69,0.00,,,0.01,447,TxWx,2013-03-01 19:25:00,
2013-03-01 13:30:00,32.4,22.0,30.07,North,11,11.4,11.4,70,0.00,,,0.01,425,TxWx,2013-03-01 19:30:00,
2013-03-01 13:35:00,32.2,22.0,30.07,NNE,17,10.8,10.8,70,0.00,,,0.01,378,TxWx,2013-03-01 19:35:00,
2013-03-01 13:40:00,31.9,22.0,30.07,NNE,20,17.1,17.4,69,0.00,,,0.01,356,TxWx,2013-03-01 19:40:00,
2013-03-01 13:45:00,31.6,22.0,30.07,NE,39,13.5,13.5,69,0.00,,,0.01,388,TxWx,2013-03-01 19:45:00,
2013-03-01 13:50:00,32.2,22.0,30.07,NNE,26,8.7,9.3,71,0.00,,,0.01,398,TxWx,2013-03-01 19:50:00,
2013-03-01 13:56:00,31.7,22.0,30.07,NNW,344,11.1,11.1,70,0.00,,,0.01,436,TxWx,2013-03-01 19:56:00,
2013-03-01 14:01:00,31.6,22.0,30.07,NNE,19,15.0,15.9,70,0.00,,,0.01,416,TxWx,2013-03-01 20:01:00,
2013-03-01 14:06:00,31.8,22.0,30.07,NNE,22,4.2,7.5,70,0.00,,,0.01,361,TxWx,2013-03-01 20:06:00,
2013-03-01 14:11:00,31.9,22.0,30.07,North,2,16.2,16.2,69,0.00,,,0.01,376,TxWx,2013-03-01 20:11:00,
2013-03-01 14:16:00,31.7,22.0,30.07,NNW,344,8.1,11.1,70,0.00,,,0.01,374,TxWx,2013-03-01 20:16:00,
2013-03-01 14:21:00,31.6,22.0,30.07,NNE,29,10.2,11.1,70,0.00,,,0.01,323,TxWx,2013-03-01 20:21:00,
2013-03-01 14:27:00,32.0,23.0,30.07,NW,319,3.3,4.8,71,0.00,,,0.01,271,TxWx,2013-03-01 20:27:00,
2013-03-01 14:32:00,31.4,22.0,30.08,NNE,14,9.6,10.8,72,0.00,,,0.01,295,TxWx,2013-03-01 20:32:00,
2013-03-01 14:37:00,31.3,22.0,30.08,NNE,18,9.0,9.0,72,0.00,,,0.01,323,TxWx,2013-03-01 20:37:00,
2013-03-01 14:42:00,31.2,22.0,30.08,NNE,32,10.8,10.8,71,0.00,,,0.01,267,TxWx,2013-03-01 20:42:00,
2013-03-01 14:48:00,30.7,22.0,30.08,NNE,15,11.7,12.6,72,0.00,,,0.01,256,TxWx,2013-03-01 20:48:00,
2013-03-01 14:53:00,30.3,21.0,30.08,North,9,14.4,16.5,72,0.00,,,0.01,236,TxWx,2013-03-01 20:53:00,
2013-03-01 14:58:00,30.3,21.0,30.08,NNW,330,5.7,6.9,72,0.00,,,0.01,299,TxWx,2013-03-01 20:58:00,
2013-03-01 15:03:00,31.0,22.0,30.08,NNE,19,10.5,10.8,71,0.00,,,0.01,553,TxWx,2013-03-01 21:03:00,
2013-03-01 15:08:00,31.2,22.0,30.08,ESE,110,2.1,2.4,72,0.00,,,0.01,304,TxWx,2013-03-01 21:08:00,
2013-03-01 15:14:00,30.7,22.0,30.08,NNW,330,5.7,5.7,71,0.00,,,0.01,220,TxWx,2013-03-01 21:14:00,
2013-03-01 15:19:00,30.3,21.0,30.08,North,6,9.3,9.3,71,0.00,,,0.01,300,TxWx,2013-03-01 21:19:00,
2013-03-01 15:24:00,29.9,21.0,30.09,NNE,23,16.5,16.8,72,0.00,,,0.01,138,TxWx,2013-03-01 21:24:00,
2013-03-01 15:29:00,29.7,21.0,30.08,North,8,8.1,8.4,73,0.00,,,0.01,208,TxWx,2013-03-01 21:29:00,
2013-03-01 15:35:00,29.8,22.0,30.09,North,2,7.5,7.5,75,0.00,,,0.01,158,TxWx,2013-03-01 21:35:00,
2013-03-01 15:40:00,29.9,22.0,30.08,NNE,15,7.5,9.0,76,0.00,,,0.01,133,TxWx,2013-03-01 21:40:00,
2013-03-01 15:45:00,29.8,22.0,30.09,NNW,332,3.6,5.4,75,0.00,,,0.01,127,TxWx,2013-03-01 21:45:00,
2013-03-01 15:50:00,29.7,22.0,30.09,NNW,338,2.4,3.0,74,0.00,,,0.01,137,TxWx,2013-03-01 21:50:00,
2013-03-01 15:56:00,29.5,21.0,30.09,WNW,302,6.9,7.5,74,0.00,,,0.01,103,TxWx,2013-03-01 21:56:00,
2013-03-01 16:01:00,29.4,21.0,30.09,NNW,331,4.5,4.5,74,0.00,,,0.01,95,TxWx,2013-03-01 22:01:00,
2013-03-01 16:06:00,29.4,21.0,30.09,North,5,5.7,6.6,74,0.00,,,0.01,89,TxWx,2013-03-01 22:06:00,
2013-03-01 16:11:00,29.4,21.0,30.09,NNW,333,7.5,7.5,75,0.00,,,0.01,67,TxWx,2013-03-01 22:11:00,
2013-03-01 16:16:00,29.4,21.0,30.09,NNE,18,8.7,8.7,75,0.00,,,0.01,72,TxWx,2013-03-01 22:16:00,
2013-03-01 16:21:00,29.4,21.0,30.09,NNE,23,5.4,5.4,75,0.00,,,0.01,67,TxWx,2013-03-01 22:21:00,
2013-03-01 16:26:00,29.4,21.0,30.09,NNE,22,2.7,3.0,76,0.00,,,0.01,45,TxWx,2013-03-01 22:26:00,
2013-03-01 16:31:00,29.4,21.0,30.09,North,7,9.6,9.6,76,0.00,,,0.01,30,TxWx,2013-03-01 22:31:00,
2013-03-01 16:37:00,29.2,22.0,30.09,North,7,15.0,15.0,77,0.00,,,0.01,22,TxWx,2013-03-01 22:37:00,
2013-03-01 16:42:00,29.1,22.0,30.10,North,351,6.6,7.5,77,0.00,,,0.01,18,TxWx,2013-03-01 22:42:00,
2013-03-01 16:47:00,29.0,22.0,30.10,NE,41,3.9,3.9,78,0.00,,,0.01,15,TxWx,2013-03-01 22:47:00,
2013-03-01 16:52:00,28.8,22.0,30.10,NNE,29,12.0,12.0,78,0.00,,,0.01,12,TxWx,2013-03-01 22:52:00,
2013-03-01 16:57:00,28.8,22.0,30.10,NE,35,10.8,11.4,77,0.00,,,0.01,9,TxWx,2013-03-01 22:57:00,
2013-03-01 17:02:00,28.6,22.0,30.10,North,11,15.0,15.0,77,0.00,,,0.01,8,TxWx,2013-03-01 23:02:00,
2013-03-01 17:08:00,28.5,22.0,30.10,North,9,12.0,13.2,77,0.00,,,0.01,9,TxWx,2013-03-01 23:08:00,
2013-03-01 17:13:00,28.6,22.0,30.10,NNW,332,4.2,5.4,78,0.00,,,0.01,7,TxWx,2013-03-01 23:13:00,
2013-03-01 17:18:00,28.5,22.0,30.10,NNE,16,6.9,7.5,77,0.00,,,0.01,4,TxWx,2013-03-01 23:18:00,
2013-03-01 17:23:00,28.5,21.0,30.10,NNE,19,8.4,9.0,78,0.00,,,0.01,2,TxWx,2013-03-01 23:23:00,
2013-03-01 17:29:00,28.4,21.0,30.11,NNE,15,12.6,12.9,78,0.00,,,0.01,1,TxWx,2013-03-01 23:29:00,
2013-03-01 17:34:00,28.3,21.0,30.11,NNE,22,9.9,9.9,78,0.00,,,0.01,0,TxWx,2013-03-01 23:34:00,
2013-03-01 17:39:00,28.3,21.0,30.11,North,358,9.6,9.6,79,0.00,,,0.01,0,TxWx,2013-03-01 23:39:00,
2013-03-01 17:44:00,28.3,21.0,30.11,NNE,25,6.6,6.6,79,0.00,,,0.01,0,TxWx,2013-03-01 23:44:00,
2013-03-01 17:49:00,28.2,21.0,30.11,North,10,9.9,11.7,78,0.00,,,0.01,0,TxWx,2013-03-01 23:49:00,
2013-03-01 17:54:00,28.0,21.0,30.11,NNE,18,10.8,11.1,78,0.00,,,0.01,0,TxWx,2013-03-01 23:54:00,
2013-03-01 17:59:00,28.0,21.0,30.11,North,11,11.7,11.7,78,0.00,,,0.01,0,TxWx,2013-03-01 23:59:00,
2013-03-01 18:05:00,28.1,21.0,30.11,NNE,21,11.7,11.7,78,0.00,,,0.01,0,TxWx,2013-03-02 00:05:00,
2013-03-01 18:10:00,28.1,21.0,30.12,NNE,16,6.9,6.9,78,0.00,,,0.01,0,TxWx,2013-03-02 00:10:00,
2013-03-01 18:15:00,28.2,21.0,30.12,NNW,342,2.4,2.4,77,0.00,,,0.01,0,TxWx,2013-03-02 00:15:00,
2013-03-01 18:20:00,28.2,21.0,30.12,NNW,338,6.0,6.3,77,0.00,,,0.01,0,TxWx,2013-03-02 00:20:00,
2013-03-01 18:25:00,28.1,21.0,30.11,NNE,16,6.3,7.2,77,0.00,,,0.01,0,TxWx,2013-03-02 00:25:00,
2013-03-01 18:30:00,28.2,21.0,30.12,NNE,18,9.9,9.9,77,0.00,,,0.01,0,TxWx,2013-03-02 00:30:00,
2013-03-01 18:35:00,28.2,21.0,30.12,NNE,33,5.7,6.0,77,0.00,,,0.01,0,TxWx,2013-03-02 00:35:00,
2013-03-01 18:41:00,28.3,21.0,30.12,North,359,6.6,6.6,77,0.00,,,0.01,0,TxWx,2013-03-02 00:41:00,
2013-03-01 18:46:00,28.2,20.0,30.12,NNE,27,13.8,16.5,76,0.00,,,0.01,0,TxWx,2013-03-02 00:46:00,
2013-03-01 18:51:00,28.3,21.0,30.12,North,10,11.7,11.7,77,0.00,,,0.01,0,TxWx,2013-03-02 00:51:00,
2013-03-01 18:56:00,28.4,20.0,30.12,NNE,20,8.4,8.4,76,0.00,,,0.01,0,TxWx,2013-03-02 00:56:00,
2013-03-01 19:02:00,28.3,20.0,30.12,North,10,10.5,10.5,76,0.00,,,0.01,0,TxWx,2013-03-02 01:02:00,
2013-03-01 19:07:00,28.3,20.0,30.13,NNE,21,12.3,12.3,75,0.00,,,0.01,0,TxWx,2013-03-02 01:07:00,
2013-03-01 19:12:00,28.3,20.0,30.13,NNE,19,9.3,9.3,75,0.00,,,0.01,0,TxWx,2013-03-02 01:12:00,
2013-03-01 19:17:00,28.4,20.0,30.13,North,354,4.2,4.2,76,0.00,,,0.01,0,TxWx,2013-03-02 01:17:00,
2013-03-01 19:22:00,28.4,20.0,30.13,NNE,19,5.7,6.0,76,0.00,,,0.01,0,TxWx,2013-03-02 01:22:00,
2013-03-01 19:28:00,28.4,20.0,30.13,North,6,9.6,10.5,76,0.00,,,0.01,0,TxWx,2013-03-02 01:28:00,
2013-03-01 19:33:00,28.4,21.0,30.13,NNE,22,4.5,5.4,77,0.00,,,0.01,0,TxWx,2013-03-02 01:33:00,
2013-03-01 19:38:00,28.4,20.0,30.13,North,7,8.4,8.4,76,0.00,,,0.01,0,TxWx,2013-03-02 01:38:00,
2013-03-01 19:43:00,28.5,20.0,30.13,North,11,5.4,5.4,75,0.00,,,0.01,0,TxWx,2013-03-02 01:43:00,
2013-03-01 19:49:00,28.5,21.0,30.13,NW,322,4.5,4.8,76,0.00,,,0.01,0,TxWx,2013-03-02 01:49:00,
2013-03-01 19:54:00,28.6,21.0,30.13,NNE,19,3.6,3.6,76,0.00,,,0.01,0,TxWx,2013-03-02 01:54:00,
2013-03-01 19:59:00,28.6,22.0,30.13,North,355,6.0,8.7,77,0.00,,,0.01,0,TxWx,2013-03-02 01:59:00,
2013-03-01 20:04:00,28.7,22.0,30.13,North,4,6.9,6.9,77,0.00,,,0.01,0,TxWx,2013-03-02 02:04:00,
2013-03-01 20:10:00,28.6,21.0,30.13,NNE,17,8.4,8.4,76,0.00,,,0.01,0,TxWx,2013-03-02 02:10:00,
2013-03-01 20:15:00,28.6,21.0,30.13,NNE,29,6.9,6.9,76,0.00,,,0.01,0,TxWx,2013-03-02 02:15:00,
2013-03-01 20:20:00,28.7,21.0,30.13,North,1,2.7,3.3,76,0.00,,,0.01,0,TxWx,2013-03-02 02:20:00,
2013-03-01 20:25:00,28.7,21.0,30.13,North,8,6.6,6.6,75,0.00,,,0.01,0,TxWx,2013-03-02 02:25:00,
2013-03-01 20:30:00,28.8,21.0,30.13,North,353,3.3,3.3,74,0.00,,,0.01,0,TxWx,2013-03-02 02:30:00,
2013-03-01 20:36:00,28.7,21.0,30.13,North,6,6.3,6.9,74,0.00,,,0.01,0,TxWx,2013-03-02 02:36:00,
2013-03-01 20:41:00,28.8,20.0,30.13,NNE,15,6.3,6.3,73,0.00,,,0.01,0,TxWx,2013-03-02 02:41:00,
2013-03-01 20:46:00,28.9,20.0,30.13,NNE,21,4.8,4.8,73,0.00,,,0.01,0,TxWx,2013-03-02 02:46:00,
2013-03-01 20:51:00,28.9,20.0,30.13,North,1,5.4,5.7,72,0.00,,,0.01,0,TxWx,2013-03-02 02:51:00,
2013-03-01 20:56:00,28.9,20.0,30.13,NNE,17,8.7,8.7,72,0.00,,,0.01,0,TxWx,2013-03-02 02:56:00,
2013-03-01 21:02:00,29.0,20.0,30.13,WNW,297,1.2,1.5,72,0.00,,,0.01,0,TxWx,2013-03-02 03:02:00,
2013-03-01 21:07:00,28.9,20.0,30.13,North,10,10.2,10.2,71,0.00,,,0.01,0,TxWx,2013-03-02 03:07:00,
2013-03-01 21:12:00,29.0,20.0,30.13,North,2,6.0,6.3,71,0.00,,,0.01,0,TxWx,2013-03-02 03:12:00,
2013-03-01 21:17:00,29.0,20.0,30.13,NNE,26,5.1,5.7,71,0.00,,,0.01,0,TxWx,2013-03-02 03:17:00,
2013-03-01 21:22:00,29.0,20.0,30.13,North,6,9.9,10.8,71,0.00,,,0.01,0,TxWx,2013-03-02 03:22:00,
2013-03-01 21:27:00,29.1,20.0,30.13,NNE,32,4.2,4.2,71,0.00,,,0.01,0,TxWx,2013-03-02 03:27:00,
2013-03-01 21:32:00,29.0,20.0,30.13,NNE,21,6.3,6.9,72,0.00,,,0.01,0,TxWx,2013-03-02 03:32:00,
2013-03-01 21:37:00,29.1,20.0,30.13,NNE,24,4.8,4.8,72,0.00,,,0.01,0,TxWx,2013-03-02 03:37:00,
2013-03-01 21:43:00,29.0,20.0,30.13,ENE,58,6.3,7.2,73,0.00,,,0.01,0,TxWx,2013-03-02 03:43:00,
2013-03-01 21:48:00,28.9,21.0,30.13,ENE,59,4.8,4.8,74,0.00,,,0.01,0,TxWx,2013-03-02 03:48:00,
2013-03-01 21:53:00,28.9,21.0,30.13,NE,43,7.5,7.5,74,0.00,,,0.01,0,TxWx,2013-03-02 03:53:00,
2013-03-01 21:58:00,28.8,21.0,30.13,NE,40,6.3,6.6,74,0.00,,,0.01,0,TxWx,2013-03-02 03:58:00,
2013-03-01 22:03:00,28.7,21.0,30.13,NE,42,6.6,9.0,74,0.00,,,0.01,0,TxWx,2013-03-02 04:03:00,
2013-03-01 22:09:00,28.7,20.0,30.13,ENE,62,4.8,5.1,73,0.00,,,0.01,0,TxWx,2013-03-02 04:09:00,
2013-03-01 22:14:00,28.6,20.0,30.12,ENE,63,5.1,5.1,72,0.00,,,0.01,0,TxWx,2013-03-02 04:14:00,
2013-03-01 22:19:00,28.6,20.0,30.12,ENE,59,6.0,6.0,72,0.00,,,0.01,0,TxWx,2013-03-02 04:19:00,
2013-03-01 22:24:00,28.6,20.0,30.12,NE,41,4.8,5.1,72,0.00,,,0.01,0,TxWx,2013-03-02 04:24:00,
2013-03-01 22:30:00,28.6,20.0,30.12,NE,42,3.9,4.2,72,0.00,,,0.01,0,TxWx,2013-03-02 04:30:00,
2013-03-01 22:35:00,28.6,20.0,30.12,NE,42,4.8,4.8,72,0.00,,,0.01,0,TxWx,2013-03-02 04:35:00,
2013-03-01 22:40:00,28.6,20.0,30.12,NE,35,4.5,4.5,73,0.00,,,0.01,0,TxWx,2013-03-02 04:40:00,
2013-03-01 22:45:00,28.6,20.0,30.12,NNE,28,4.8,4.8,72,0.00,,,0.01,0,TxWx,2013-03-02 04:45:00,
2013-03-01 22:50:00,28.6,20.0,30.12,NE,38,4.8,5.1,72,0.00,,,0.01,0,TxWx,2013-03-02 04:50:00,
2013-03-01 22:55:00,28.6,20.0,30.12,NNE,25,3.3,3.3,72,0.00,,,0.01,0,TxWx,2013-03-02 04:55:00,
2013-03-01 23:00:00,28.6,20.0,30.12,ENE,57,3.6,3.6,72,0.00,,,0.01,0,TxWx,2013-03-02 05:00:00,
2013-03-01 23:01:00,28.6,20.0,30.12,NE,49,4.2,4.2,72,0.00,,,0.01,0,TxWx,2013-03-02 05:01:00,
2013-03-01 23:03:00,28.6,20.0,30.12,NNE,25,4.8,5.1,72,0.00,,,0.01,0,TxWx,2013-03-02 05:03:00,
2013-03-01 23:08:00,28.5,20.0,30.12,NNE,29,4.5,5.1,71,0.00,,,0.01,0,TxWx,2013-03-02 05:08:00,
2013-03-01 23:14:00,28.6,20.0,30.12,ENE,71,4.2,4.2,72,0.00,,,0.01,0,TxWx,2013-03-02 05:14:00,
2013-03-01 23:19:00,28.5,20.0,30.11,ENE,74,5.4,5.4,72,0.00,,,0.01,0,TxWx,2013-03-02 05:19:00,
2013-03-01 23:24:00,28.3,19.0,30.12,ENE,60,7.2,7.2,72,0.00,,,0.01,0,TxWx,2013-03-02 05:24:00,
2013-03-01 23:29:00,28.2,19.0,30.11,ENE,75,2.1,2.1,73,0.00,,,0.01,0,TxWx,2013-03-02 05:29:00,
2013-03-01 23:34:00,27.8,19.0,30.11,East,83,10.2,10.5,72,0.00,,,0.01,0,TxWx,2013-03-02 05:34:00,
2013-03-01 23:39:00,27.6,19.0,30.11,NE,38,4.2,4.8,72,0.00,,,0.01,0,TxWx,2013-03-02 05:39:00,
2013-03-01 23:45:00,27.5,18.0,30.12,ENE,70,5.7,5.7,72,0.00,,,0.01,0,TxWx,2013-03-02 05:45:00,
2013-03-01 23:50:00,27.5,19.0,30.12,ENE,61,3.9,4.2,72,0.00,,,0.01,0,TxWx,2013-03-02 05:50:00,
2013-03-01 23:55:00,27.5,18.0,30.12,NE,46,2.7,2.7,72,0.00,,,0.01,0,TxWx,2013-03-02 05:55:00,